Половинное

Россия / Курганская область     54°41′50″N   63°50′33″E
темп.,
°C
ветер,
м/с
пор.,
м/с
влажн.,
%
обл.,
%
осадки,
мм/ч
давл.,
гПа
погр.,
м
17 апреля, сб
сб1723:00+6всв41055100 0.0 1026343
02:00+5всв4862100 0.0 1026267
05:00+3всв366915 0.0 1027150
08:00+4вюв34625 0.0 1027203
11:00+8вюв224446 0.0 1026780
14:00+10ююз224074 0.0 10251064
17:00+10зюз344572 0.0 1023853
20:00+7з356839 0.0 102297
18 апреля, вс
вс1823:00+5зюз35811 0.0 102179
02:00+4з35835 0.0 101980
05:00+3сз48865 0.0 1018149
08:00+5зсз612650 0.0 1018547
11:00+8ссз8105691 0.0 10181643
14:00+6с9105297 0.0 10221580
17:00+4ссв99329 0.0 10251897
20:00+1св711415 0.0 1028748
19 апреля, пн
пн1923:00−1св38470 0.0 1031369
02:00−2св47510 0.0 1032451
05:00−3св46520 0.0 1034420
08:00−2всв56400 0.0 10361174
11:00−1св55302 0.0 10361494
14:00+1св45294 0.0 10351821
17:00+2св45295 0.0 10351968
20:00−1ссв35425 0.0 103695
20 апреля, вт
вт2023:00−2всв23484 0.0 103783
02:00−3всв22480 0.0 103744
05:00−3зюз01460 0.0 103810
08:00−1зсз22355 0.0 1038434
11:00+2зсз33285 0.0 10361135
14:00+5з45265 0.0 10341315
17:00+7зсз56260 0.0 10331429
20:00+4з35390 0.0 103265
21 апреля, ср
ср2123:00+2з410490 0.0 1031166
02:00+1зсз48600 0.0 1031132
05:00+1зсз49700 0.0 1032140
08:00+4сз59560 0.0 1032307
11:00+9сз56430 0.0 1032926
14:00+12ссз56405 0.0 10311523
17:00+13с564116 0.0 10321724
20:00+9св335734 0.0 103341